Regional Weather Roundup
Issued by NWS Little Rock, AR

Home | Current Version | Previous Version | Graphics & Text | Print | Product List | Glossary On
Versions: 1 2 3 4 5 6 7 8 9 10 11 12 13 14 15 16 17 18 19 20 21 22 23 24 25 26 27
000
ASUS44 KLZK 250605
RWRLZK

WEATHER ROUNDUP FOR ARKANSAS
NATIONAL WEATHER SERVICE LITTLE ROCK AR
100 AM CDT MON JUL 25 2016

NOTE: "FAIR" INDICATES FEW OR NO CLOUDS BELOW 12,000 FEET WITH NO
SIGNIFICANT WEATHER AND/OR OBSTRUCTIONS TO VISIBILITY.

ARZ001-003-010-029-250700-
NORTHWEST ARKANSAS

CITY           SKY/WX    TMP DP  RH WIND       PRES   REMARKS
FAYETTEVILLE   CLEAR     75  70  84 CALM      30.00F
6HR MIN TEMP:  75; 6HR MAX TEMP:  87;

FORT SMITH     CLEAR     79  72  79 NE5       29.96F
6HR MIN TEMP:  77; 6HR MAX TEMP:  93;

HARRISON       CLEAR     75  71  87 CALM      30.01S
6HR MIN TEMP:  75; 6HR MAX TEMP:  83;

BENTONVILLE    CLEAR     79  66  65 S3        30.02F
6HR MIN TEMP:  79; 6HR MAX TEMP:  93;

ROGERS         CLEAR     80  71  74 CALM      30.02S
6HR MIN TEMP:  79; 6HR MAX TEMP:  92;

SILOAM SPGS    CLEAR     79  64  61 CALM      30.02F
6HR MIN TEMP:  79; 6HR MAX TEMP:  91;

HIGHFILL       CLEAR     80  71  74 CALM      30.01F
6HR MIN TEMP:  79; 6HR MAX TEMP:  94;

$$

ARZ004-005-016-250700-
NORTH CENTRAL ARKANSAS

CITY           SKY/WX    TMP DP  RH WIND       PRES   REMARKS
BATESVILLE     CLEAR     75  72  88 W3        29.97R
6HR MIN TEMP:  75; 6HR MAX TEMP:  82;

FLIPPIN        CLEAR     79  72  78 CALM      29.95S
6HR MIN TEMP:  77; 6HR MAX TEMP:  88;

MTN HOME       CLEAR     76  74  93 CALM      29.97S
6HR MIN TEMP:  75; 6HR MAX TEMP:  85;

$$

ARZ040-041-250700-
WEST CENTRAL ARKANSAS

CITY           SKY/WX    TMP DP  RH WIND       PRES   REMARKS
MENA           MOCLDY    77  75  94 W3        30.01S
MOUNT IDA      MOCLDY    73  73 100 SE3       29.97S
6HR MIN TEMP:  73; 6HR MAX TEMP:  91; 6HR PCP: TRACE;

$$

ARZ009-017-025-026-028-250700-
NORTHEAST ARKANSAS

CITY           SKY/WX    TMP DP  RH WIND       PRES   REMARKS
CORNING          N/A     79  79 100 SW6       29.96S
JONESBORO      CLEAR     79  74  84 S6        29.95R
6HR MIN TEMP:  76; 6HR MAX TEMP:  80;

NEWPORT        CLEAR     80  78  94 S5        29.96S HX  86
6HR MIN TEMP:  79; 6HR MAX TEMP:  85;

WALNUT RIDGE   PTCLDY    79  72  78 S7        29.95S
6HR MIN TEMP:  79; 6HR MAX TEMP:  88;

BLYTHEVILLE    CLEAR     80  77  90 S3        29.97R HX  87
6HR MIN TEMP:  80; 6HR MAX TEMP:  88;

$$

ARZ022-023-033-042-044-250700-
CENTRAL ARKANSAS

CITY           SKY/WX    TMP DP  RH WIND       PRES   REMARKS
LITTLE ROCK    MOCLDY    78  71  79 CALM      29.96S
6HR MIN TEMP:  78; 6HR MAX TEMP:  91;

N LITTLE ROCK    N/A     75  71  86 CALM      29.93F
6HR MIN TEMP:  75; 6HR MAX TEMP:  84;

JACKSONVILLE   PTCLDY    76  72  89 CALM      29.95F
6HR MIN TEMP:  76; 6HR MAX TEMP:  86;

SEARCY         PTCLDY    75  72  90 CALM      29.97S
6HR MIN TEMP:  74; 6HR MAX TEMP:  88;

HOT SPRINGS    CLOUDY    74  72  93 W3        29.98R
6HR MIN TEMP:  73; 6HR MAX TEMP:  82; 6HR PCP:  0.46;

RUSSELLVILLE   CLEAR     73  70  90 N3        29.96S
6HR MIN TEMP:  73; 6HR MAX TEMP:  83;

$$

ARZ036-250700-
EAST ARKANSAS

CITY           SKY/WX    TMP DP  RH WIND       PRES   REMARKS
WEST MEMPHIS   CLEAR     78  76  93 S6        29.95S
6HR MIN TEMP:  77; 6HR MAX TEMP:  85;

$$

ARZ050-053-066-070-073-250700-
SOUTHWEST ARKANSAS

CITY           SKY/WX    TMP DP  RH WIND       PRES   REMARKS
CAMDEN         CLEAR     73  70  88 CALM      29.94F
TEXARKANA      MOCLDY    76  71  85 S6        29.97S
6HR MIN TEMP:  76; 6HR MAX TEMP:  94; 6HR PCP:  0.06;

EL DORADO      CLEAR     73  72  96 CALM      29.96F
6HR MIN TEMP:  73; 6HR MAX TEMP:  81;

DE QUEEN       FOG       76  76 100 CALM      29.95F VSB 1/4
6HR MIN TEMP:  75; 6HR MAX TEMP:  89;

$$

ARZ056-057-069-250700-
SOUTHEAST ARKANSAS

CITY           SKY/WX    TMP DP  RH WIND       PRES   REMARKS
PINE BLUFF     CLEAR     78  74  87 CALM      29.96S
6HR MIN TEMP:  76; 6HR MAX TEMP:  88;

STUTTGART      CLEAR     79  72  78 W6        29.95F
6HR MIN TEMP:  79; 6HR MAX TEMP:  90;

MONTICELLO     CLEAR     76  73  91 CALM      29.96R
6HR MIN TEMP:  76; 6HR MAX TEMP:  78;


$$






USA.gov is the U.S. government's official web portal to all federal, state and local government web resources and services.